Flag Weather past 2 weeks in Geraldton, Western Australia, Australia

Now
76 °F

Overcast.


Feels Like: 78 °F
Forecast: 64 / 74 °F
Wind: 10 mph from Southwest

Location: Geraldton Airport

Current Time: Nov 28, 2014 at 11:27:18 AM

Latest Report: Nov 28, 2014 at 9:00 AM


Visibility: 13 mi

Pressure: 29.89 "Hg

Humidity: 58%

Dew point: 60 °F

Location of GeraldtonLocation

Historic Weather in Geraldton — Graph

°F

Geraldton temperature yesterday

Maximum temperature yesterday: 81 °F (at 11:00 AM)
Minimum temperature yesterday: 67 °F (at 11:00 PM)
Average temperature yesterday: 74 °F

Past Weeks' High & Low Weather Summary

 TemperatureHumidityPressure
High103 °F (Nov 25, 12:00 PM)93% (Nov 17, 2:00 AM)30.24 "Hg (Nov 17, 2:00 AM)
Low48 °F (Nov 14, 5:00 AM)10% (Nov 25, 11:00 AM)29.70 "Hg (Nov 25, 5:00 PM)
Average69 °F58%29.93 "Hg
* Reported Nov 13 9:00 AM — Nov 28 9:00 AM, Geraldton, Weather by CustomWeather, © 2014

Note: Actual official high and low records may vary slightly from our data, if they occured in-between our weather recording intervals... More about our weather records

Advertising

Geraldton weather history for previous 24 hours

 ConditionsComfort  
Time TempWeatherWind HumidityBarometerVisibility
9:00 AM
Nov 28
76 °FOvercast.10 mph58%29.89 "Hg12 mi
8:00 AM74 °FMild.9 mph70%29.88 "HgN/A
6:00 AM71 °FOvercast.6 mph80%29.84 "Hg9 mi
5:00 AM71 °FMild.No wind81%29.83 "HgN/A
3:00 AM71 °FOvercast.5 mph80%29.82 "HgN/A
2:00 AM70 °FMild.6 mph81%29.81 "HgN/A
12:00 AM69 °FOvercast.6 mph82%29.82 "HgN/A
11:00 PM
Nov 27
67 °FMild.6 mph84%29.83 "HgN/A
9:00 PM68 °FHaze.No wind86%29.82 "Hg9 mi
8:00 PM69 °FMild.6 mph82%29.80 "HgN/A
6:00 PM74 °FHaze.10 mph67%29.78 "Hg12 mi
5:00 PM75 °FMild.13 mph65%29.78 "HgN/A
3:00 PM79 °FPartly sunny.14 mph60%29.79 "Hg10 mi
2:00 PM80 °FWarm.15 mph52%29.79 "HgN/A
12:00 PM79 °FScattered clouds.17 mph56%29.81 "Hg12 mi
11:00 AM81 °FWarm.16 mph52%29.81 "HgN/A
Weather by CustomWeather, © 2014

See weather overviewHow to use our weather pages